Zurück zum Katalog

STARLINK-4254

AktivKommunikationVLEO
NORAD 52998·PAYLOAD·🇺🇸 United States

Gestartet Jul 7, 2022 von Cape Canaveral Space Force Station

Loading…

Nächste Überflüge (nächste 24 Stunden)

TLE

AktuellSource: CelesTrak SupGP

Epoche: Sep 14, 2026, 21:04 UTC

1 52998C 22076N   26257.87826389 -.00016408  00000+0 -48490-3 0  2578
2 52998  53.1582 309.6687 0001144  89.0862 202.1401 15.34390413    15

Verfolge STARLINK-4254 in Echtzeit mit AllMySat

Download on the App Store